ARIANE 5 R/B, 42816

Orbit data source: Space-Track

ARIANE 5 R/B, 42816 is space debris in HEO originally from a launch on Wed, 28 Jun 2017 UTC launched from the French Guiana (FRGUI). Debris objects in space refer to the collection of defunct objects orbiting the Earth. Examples of debris include non-operational satellites, rocket bodies, and fragments generated from explosions, collisions, or faulty payload assembly.

Loading next visibility...
ARIANE 5 R/B details
Identifier
42816, 2017-040C
Orbit
HEO
Last TLE update16 hours ago
Origin
Flag of FRArianespace (FR)
ManufacturerAirbus Safran
MissionSpacecraft
Bus & MotorESC-A, Unknown motor
Mass~5,000 kg wet, ~5,000 kg dry
Launch date (UTC)
2017-06-28 (7 years ago)
Launch vehicleUnknown
Launch site
French Guiana (FRGUI)
Object type
Payload
Rocket body
Debris
Shape & HBRCyl + 1 Nozzle, 7 m
Radar Cross Section41.627 m², Large (>1 m²)

Expand to show TLE details & history

TLE from 16 hours ago
0 ARIANE 5 R/B
1 42816U 17040C   24361.15357848  .00004625  00000-0  13593-2 0  9990
2 42816   3.0571 338.3686 7152259 343.2521   1.8164  2.44083733 63976
Epoch: 2024-12-26T03:41Z
Definitive object data (Epoch: 2024-12-26T03:41:09.18Z)
Latitude0.00025°
Longitude-172.16404°
Altitude382.509 km
Speed10.04 km/s
True Right ascension22h 33m 02s
True Declination0° 00' 01"
Sunlit
Object was in daylight at TLE epoch
Visualization TLE readout
Latitude0.07153°
Longitude6.2164°
Altitude30,508.62 km
Speed2.123 km/s
Apparent Right ascension10h 06m 33s
Apparent Declination-5° 41' 01"
Sunlit
Object is in daylight
Visualization observer readout
Local Sidereal Time19:22:19
Azimuth301.819° NW
Elevation-39.723°
Doppler factor1
Orbital elements
Apogee altitude33,597.952 km
Perigee altitude258.98 km
Semi-major axis23,306.603 km
Eccentricity0.7152259
Inclination3.0571°
RAAN338.3686°
Arg. of periapsis343.2521°
True anomaly15.49475°
Mean anomaly1.8164°
Eccentric anomaly6.34582°
Mean motion0.60999 °/min
BSTAR0.0013593
Orbital period590.17 mins
Loading maneuver chart data...
Loading historical data...
Loading historical data...
Loading historical data...
Loading historical data...
Loading historical data...
Loading historical data...
Loading historical data...
Other satellites on launch #40 in the year 2017 (2017-06-28 UTC)

ARIANE 5 R/B Visibility forecast

Observer location: undefined°, undefined

Span
Click to sort rows by Start time (UTC) header in descending order
Start Az.
Max El. time (UTC)
Max El. Az.
Max El.
End time (UTC)
End Az.
278 mins2024-12-27 10:11:34.537Z247.727° W2024-12-27 11:39:34.537Z241.179° WSW20.796°2024-12-27 14:49:34.537Z253.554° W
|